THORAD AGENA D DEB, 5392

Orbit data source: Space-Track

THORAD AGENA D DEB, 5392 is space debris in SSO originally from a launch on Wed, 08 Apr 1970 UTC launched from the Air Force Western Test Range (AFWTR). Debris objects in space refer to the collection of defunct objects orbiting the Earth. Examples of debris include non-operational satellites, rocket bodies, and fragments generated from explosions, collisions, or faulty payload assembly.

Loading next visibility...
Identifier
5392, 1970-025KX
Orbit
SSO
Country
Flag of USUS
Related business
Manufacturer
Unknown
Mission
Spacecraft
Bus & Motor
Unknown
Mass
Unknown
Launch date (UTC)
1970-04-08 (56 years ago)
Launch vehicle
Unknown
Launch site
Air Force Western Test Range (AFWTR)
Object type
Payload
Rocket body
Debris
Shape & HBR
Unknown shape, 0.1 m
Radar Cross Section
Small (<0.1 m²)

Expand to show TLE details & history
Last TLE update: 7 hours ago

TLE from 7 hours ago
0 THORAD AGENA D DEB
1 05392U 70025KX  25300.26383704  .00001971  00000-0  11268-2 0  9994
2 05392 100.0169 221.3842 0044480 182.7350 177.3580 14.10472981811677
Epoch: 2025-10-27T06:19Z
TLE epoch observation values (Epoch: 2025-10-27T06:19:55.520Z)
Latitude
-0.00001°
Longitude
90.53469°
Altitude
892.768 km
Speed
7.389 km/s
True Right ascension
14h 45m 32s
True Declination
0° 00' 00"
Sunlit
Object was in daylight at epoch
Visualization orbit readout
Latitude
Unknown
Longitude
Unknown
Altitude
Unknown
Speed
Unknown
Apparent Right ascension
Unknown
Apparent Declination
Unknown
Sunlit
N/A
Visualization observer readout
Local Sidereal Time
09:07:08
Azimuth
Unknown
Elevation
Unknown
Doppler factor
Unknown
Orbital elements
Apogee altitude
887.165 km
Perigee altitude
822.819 km
Semi-major axis
7,233.129 km
Eccentricity
0.00445
Inclination
100.0169°
RAAN
221.3842°
Arg. of periapsis
182.735°
True anomaly
177.38137°
Mean anomaly
177.358°
Eccentric anomaly
177.3697°
Mean motion
3.52821 °/min
Orbital period
102.03 mins
BSTAR
0.0011268
Loading maneuver chart data...
Computing Atmospheric mass density...

Documentation

Showing up to 5 results
|